{"data":{"norad_id":64742,"epoch":"2026-05-25T03:17:44.346912Z","epoch_age_seconds":73612,"freshness":"FRESH","line1":"1 64742U 25144U   26145.13731883  .00011579  00000+0  40238-3 0  9993","line2":"2 64742  53.1573 186.1401 0001263  87.1445 272.9700 15.30206099 51391","mean_motion":15.30206099,"eccentricity":0.0001263,"inclination_deg":53.1573,"raan_deg":186.1401,"arg_perigee_deg":87.1445,"mean_anomaly_deg":272.97,"bstar":0.00040238,"rev_number":5139,"period_min":94.104970627228,"perigee_km":474.33128289877,"apogee_km":476.06243503155,"semimajor_km":6853.3338589652,"source":"CELESTRAK","updated_at":"2026-05-25T13:38:20.548557Z"}}